User: anonymous
Location: Vancouver
(49.2500°N, 123.1330°W)
Time: 08:58:23
(UTC-07:00)
Language:

Transit 2A Rocket - Orbit

View from above orbital plane
View from above orbital plane
View from above satellite
View from above satellite

Ground track
Ground track

The orbit data is extracted from the following two-line orbital elements,

1 00047U 60007C   14261.46353572  .00000202  00000-0  71350-4 0  3025
2 00047 066.6691 005.4768 0225769 036.8239 324.8131 14.41212931832529
Epoch (UTC): 18 September 2014 11:07:29
Eccentricity: 0.0225769
inclination: 66.6691°
perigee height: 593 km
apogee height: 915 km
right ascension of ascending node: 5.4768°
argument of perigee: 36.8239°
revolutions per day: 14.41212931
mean anomaly at epoch: 324.8131°
orbit number at epoch: 83252

The dashed part of the orbit path shows where the satellite is in the earth's shadow,  

DLR